NOAA 17 DEB

基本信息
目录编号:
48754
目录名称:
NOAA 17 DEB
国际标识:
2002-032CP
轨道中心:
EARTH
物体状态:
在轨
发射日期:
2002-06-24 UTC
轨道信息
数据来源: 国际轨道数据
星历时间: 2026-07-12T17:43:00+0800
半长轴: 7029.101km
偏心率: 0.001308
轨道倾角: 98.936°
近地点辐角: 99.674°
升交点赤经: 257.301°
平近点角: 260.594°
近地点: 641.769km
远地点: 660.159km
周期: 97.748分钟
每日圈数: 14.73171
详细信息
发射场:
AFWTR
轨道高度:
LEO
数据来源:
AOE Integration Group
参考系:
TEME
时间系统:
UTC
历元类型:
SGP4
2D轨道图
3D轨道图
轨道高度分析图
轨道倾角分析图
轨道综合分析图
查看轨道综合分析图